DELTA 1 DEB

Satellite information

Favourite Embed

Satellite Type and Status

DEBRISIN ORBIT

Key statistics

Satellite DELTA 1 DEB at a glance.

Uptime

17231

Days in orbit

Revolutions

≈ 14.3

Per day

Orbit

SSO

Sun Synchronous Orbit

Inclination

99.1

Latest

Satellite identification and parameters

Extended collection of information and parameters for DELTA 1 DEB.

Object identification

Identified? True

Debris? True

Object name: DELTA 1 DEB

International designator: 1978-026JN

Object number (NORAD): 37651

Object ID (CCSDS): 37651

Country: UNITED STATES OF AMERICA (US)

Current information (Y/N): Y

RCS size: SMALL

Orbital parameters

Period: 100.646 minutes

Inclination: 99.0748 deg

SMA: 7167.318 km

Apoapsis: 815.751 km

Periapsis: 762.614 km

RAAN: 214.2126 deg

Eccentricy: 0.0037069

Argument of periapsis: 188.0975 deg

Mean anomaly: 171.9612 deg

Mean motion: 14.30763231 rev/day

Mean motion (dot): 0.00003758 rev/day2

B* drag term: 0.0014419 1/REarth

Two-line elements (TLE)

Creation date: May 5, 2025, 2:46 p.m.

Reference frame: TEME

Reference center: EARTH

Epoch: May 2, 2025, 12:11 p.m. UTC

TLE line 0: 0 DELTA 1 DEB

TLE line 1: 1 37651U 78026JN 25122.50769340 .00003758 00000-0 14419-2 0 9995

TLE line 2: 2 37651 99.0748 214.2126 0037069 188.0975 171.9612 14.30763231145290

Live tracking on map

Real-time ground track for satellite DELTA 1 DEB.

In-orbit conjunctions

A list of the most updated potential collisions computed for object DELTA 1 DEB.

Target Orbit TCA Probability of collision Miss distance Type
RESURS O1-N4 SSO 2024-12-13 22:54:30 0.0001115186 729.0 (m) PAYLOAD
CZ-6A DEB SSO 2024-11-12 07:28:59 0.0001146863 981.0 (m) DEBRIS

Associated space launch

Earth observation satellite

DELTA 1 DEB was lifted into orbit during the mission ‘Delta 2910 | Landsat 3’, on board a Delta 2910 space rocket.

The launch took place on March 5, 1978, 5:54 p.m. from Space Launch Complex 2W.

For more information about the launch, click the button.

Launch to space Delta 2910 | Landsat 3
Delta 2910 | Landsat 3

Agency: N/A

Status: Launch Successful

Launch date: March 5, 1978, 5:54 p.m. UTC

Rocket: Delta 2910

Launch pad: Space Launch Complex 2W

Location: Vandenberg SFB, CA, USA

...

Latest news about this satellite

There are no fresh news available about this satellite. Check back as we update our databases every day.


Newsletter sign-up

Weekly statistics, charts and insights to help you stay on top of the space industry.